Garissa, Kenya

3:08 PM EAT on August 27, 2016 (GMT +0300)
Garissa

Weather History for HKGA - June, 2014

Change the Weather History Date:

Friday, June 6, 2014

  Actual Average Record
Temperature  
Mean Temperature 84 °F -  
Max Temperature 93 °F 93 °F - ()
Min Temperature 75 °F 71 °F - ()
Cooling Degree Days 19    
Growing Degree Days 34 (Base 50)    
Moisture  
Dew Point 68 °F    
Average Humidity 59    
Maximum Humidity 83    
Minimum Humidity 27    
Precipitation  
Precipitation 0.00 in - - ()
Sea Level Pressure  
Sea Level Pressure 29.86 in    
Wind  
Wind Speed 8 mph ()    
Max Wind Speed 28 mph    
Max Gust Speed -    
Visibility 10.0 miles    
Events      
T = Trace of Precipitation, MM = Missing Value Source: Averaged Metar Reports

Daily Weather History Graph

Daily Weather History Graph

Search for Another Location

Airport or City:

Trip Planner

Search our weather history database for the weather conditions in past years. The results will help you decide how hot, cold, wet, or windy it might be!

Date:

Astronomy

Jun. 06, 2014 Rise Set
Actual Time 6:17 AM EAT 6:22 PM EAT
Civil Twilight 5:54 AM EAT 6:45 PM EAT
Nautical Twilight 5:28 AM EAT 7:11 PM EAT
Astronomical Twilight 5:02 AM EAT 7:37 PM EAT
Moon 12:47 PM EAT (6/6) 12:25 AM EAT (6/6)
Length of Visible Light 12h 50m
Length of Day
12h 05m
First Quarter, 55% of the Moon is Illuminated
Jun 6
First Quarter
Jun 13
Full
Jun 19
Last Quarter
Jun 27
New
Jul 5
First Quarter

Hourly Weather History & Observations

Time (EAT) Temp. Heat Index Dew Point Humidity Pressure Visibility Wind Dir Wind Speed Gust Speed Precip Events Conditions
1:00 AM 77.0 °F - 71.6 °F 83% 29.89 in - South 4.6 mph - N/A   Clear
2:00 AM 77.0 °F - 69.8 °F 78% 29.89 in - Calm Calm - N/A   Clear
3:00 AM 76 °F - 70 °F 77% 29.87 in 19 mi Calm Calm - -  
4:00 AM 77.0 °F - 69.8 °F 78% 29.86 in - Calm Calm - N/A   Clear
5:00 AM 75.2 °F - 69.8 °F 83% 29.86 in - Calm Calm - N/A   Clear
7:00 AM 75.2 °F - 69.8 °F 83% 29.89 in - South 4.6 mph - N/A   Clear
8:00 AM 77.0 °F - 69.8 °F 78% 29.92 in 6.2 mi South 6.9 mph - N/A   Unknown
9:00 AM 81 °F - 70 °F 61% 29.91 in 25 mi SSE 17.3 mph - -   Mostly Cloudy
10:00 AM 84.2 °F 87.3 °F 68.0 °F 58% 29.92 in 6.2 mi South 8.1 mph - N/A   Mostly Cloudy
11:00 AM 87.8 °F 90.4 °F 66.2 °F 49% 29.89 in 6.2 mi SSW 13.8 mph - N/A   Mostly Cloudy
12:00 PM 90 °F - 66 °F 35% 29.86 in 25 mi South 6.9 mph - -   Mostly Cloudy
1:00 PM 91.4 °F 93.2 °F 64.4 °F 41% 29.86 in 6.2 mi SSE 20.7 mph - N/A   Mostly Cloudy
2:00 PM 93.2 °F 94.9 °F 64.4 °F 38% 29.83 in 6.2 mi South 16.1 mph - N/A   Mostly Cloudy
3:00 PM 93 °F - 63 °F 27% 29.80 in 25 mi SSW 13.8 mph - -   Partly Cloudy
4:00 PM 91.4 °F 93.2 °F 64.4 °F 41% 29.83 in 6.2 mi SE 20.7 mph - N/A   Scattered Clouds
5:00 PM 91.4 °F 93.2 °F 64.4 °F 41% 29.83 in 6.2 mi SE 20.7 mph - N/A   Scattered Clouds
6:00 PM 89 °F - 67 °F 38% 29.81 in 19 mi SE 13.8 mph - -   Scattered Clouds
7:00 PM 84.2 °F 86.6 °F 66.2 °F 55% 29.83 in - SSE 27.6 mph - N/A   Clear
9:00 PM 83 °F - 67 °F 49% 29.86 in 19 mi SSE 17.3 mph - -   Scattered Clouds
10:00 PM 80.6 °F 83.2 °F 68.0 °F 65% 29.86 in - SSE 20.7 mph - N/A   Clear
11:00 PM 78.8 °F - 69.8 °F 74% 29.89 in - SE 13.8 mph - N/A   Clear